ムルコス彗星

124P/Mrkos (2014)

English version
Home page
Updated on August 10, 2014

---------------------------------------------------------------------

・ プロフィール

・ 写真集

・ 軌道要素

Epoch 2014 Apr. 13.0 TT = JDT 2456760.5
T 2014 Apr.  9.61354 TT                                 MPC
q   1.6453294            (2000.0)            P               Q
n   0.16319128     Peri.  183.71034     -0.99747866     +0.07086612
a   3.3164345      Node     0.41463     -0.04377104     -0.57237599
e   0.5038860      Incl.   31.52903     -0.05586075     -0.81692333
P   6.04
From 719 observations 1991 Mar. 15-2014 Feb. 10, mean residual 0".5.

・ 星図

・ 光度変化

        m1 = 15.8 + 5 logΔ + 5.0 log r

---------------------------------------------------------------------

軌道要素はM.P.E.C. 2014-C43に掲載されたものです。
星図はステラナビゲータ Ver.8 (アストロアーツ) で作成したものです。
光度グラフはComet for Windowsで作成したものです。

---------------------------------------------------------------------

Copyright(C) Seiichi Yoshida (comet@aerith.net). All rights reserved.